Location: Austin
(30.3000°N, 97.7500°W)
Time: 04:03:13
(UTC-06:00)

SWIFT - Pass Details

Date: 20 November 2023
Orbit: 517 x 529 km, 20.6° (Epoch: 04 December)

Event Time Altitude Azimuth Distance (km) Brightness Sun altitude
Rises 18:30:44 0° 248° (WSW) 2,616 7.8 -12.8°
Reaches altitude 10° 18:33:26 10° 230° (SW) 1,728 6.0 -13.3°
Maximum altitude 18:36:21 19° 184° (S) 1,246 4.3 -13.9°
Drops below altitude 10° 18:39:16 10° 137° (SE) 1,727 4.6 -14.5°
Enters shadow 18:39:38 - 133° (SE) 1,835 4.7 -14.6°
